Change the Weather History Date:

Saturday, March 1, 2014

  Actual Average Record
Temperature  
Mean Temperature 19 °F -  
Max Temperature 35 °F 43 °F 66 °F (1976)
Min Temperature 3 °F 21 °F 3 °F (2014)
Degree Days  
Heating Degree Days 46    
Moisture  
Dew Point 9 °F    
Average Humidity 60    
Maximum Humidity 84    
Minimum Humidity 34    
Precipitation  
Precipitation 0.00 in - - ()
Sea Level Pressure  
Sea Level Pressure 30.31 in    
Wind  
Wind Speed 2 mph (West)    
Max Wind Speed 7 mph    
Max Gust Speed -    
Visibility 10 miles    
Events      
Averages and records for this station are not official NWS values.
T = Trace of Precipitation, MM = Missing Value Source: NWS Daily Summary

Daily Weather History Graph

Daily Weather History Graph

Search for Another Location

Airport or City:

Trip Planner

Search our weather history database for the weather conditions in past years. The results will help you decide how hot, cold, wet, or windy it might be!

Date:

Astronomy

Mar. 01, 2014 Rise Set
Actual Time 6:32 AM EST 5:50 PM EST
Civil Twilight 6:05 AM EST 6:17 PM EST
Nautical Twilight 5:33 AM EST 6:49 PM EST
Astronomical Twilight 5:01 AM EST 7:20 PM EST
Moon 6:24 AM EST (3/1) 6:34 PM EST (3/1)
Length of Visible Light 12h 12m
Length of Day
11h 17m
New Moon, 0% of the Moon is Illuminated
Mar 1
New Moon
Mar 8
First Quarter
Mar 16
Full
Mar 23
Last Quarter
Mar 30
New

Hourly Weather History & Observations

Time (EST) Temp. Windchill Dew Point Humidity Pressure Visibility Wind Dir Wind Speed Gust Speed Precip Events Conditions
12:53 AM 7.0 °F - 1.9 °F 80% 30.43 in 10.0 mi Calm Calm - N/A   Clear
1:53 AM 6.1 °F - 1.9 °F 83% 30.42 in 10.0 mi Calm Calm - N/A   Clear
2:53 AM 6.1 °F - 1.9 °F 83% 30.41 in 10.0 mi Calm Calm - N/A   Clear
3:53 AM 5.0 °F -2.1 °F 1.0 °F 84% 30.40 in 10.0 mi NW 3.5 mph - N/A   Clear
4:53 AM 3.9 °F -3.4 °F -0.0 °F 84% 30.39 in 10.0 mi NW 3.5 mph - N/A   Clear
5:53 AM 5.0 °F - -0.0 °F 80% 30.39 in 10.0 mi Calm Calm - N/A   Clear
6:53 AM 3.9 °F -3.4 °F -0.0 °F 84% 30.39 in 10.0 mi NW 3.5 mph - N/A   Clear
7:53 AM 10.9 °F 4.7 °F 1.9 °F 67% 30.42 in 10.0 mi NW 3.5 mph - N/A   Clear
8:53 AM 18.0 °F - 5.0 °F 57% 30.41 in 10.0 mi Calm Calm - N/A   Clear
9:53 AM 23.0 °F 15.8 °F 7.0 °F 50% 30.39 in 10.0 mi South 5.8 mph - N/A   Clear
10:53 AM 27.0 °F 21.6 °F 6.1 °F 41% 30.38 in 10.0 mi Variable 4.6 mph - N/A   Clear
11:53 AM 28.9 °F 23.9 °F 6.1 °F 38% 30.35 in 10.0 mi SSE 4.6 mph - N/A   Clear
12:53 PM 32.0 °F 28.7 °F 6.1 °F 34% 30.31 in 10.0 mi Variable 3.5 mph - N/A   Clear
1:53 PM 34.0 °F 28.8 °F 9.0 °F 35% 30.28 in 10.0 mi WSW 5.8 mph - N/A   Clear
2:53 PM 34.0 °F 28.0 °F 10.0 °F 37% 30.24 in 10.0 mi Variable 6.9 mph - N/A   Scattered Clouds
3:53 PM 34.0 °F 29.8 °F 10.9 °F 38% 30.25 in 10.0 mi Variable 4.6 mph - N/A   Overcast
4:53 PM 35.1 °F 32.2 °F 10.0 °F 35% 30.22 in 10.0 mi Variable 3.5 mph - N/A   Overcast
5:53 PM 34.0 °F - 10.9 °F 38% 30.21 in 10.0 mi Calm Calm - N/A   Scattered Clouds
6:53 PM 34.0 °F - 15.1 °F 46% 30.22 in 10.0 mi Calm Calm - N/A   Overcast
7:53 PM 32.0 °F - 19.9 °F 61% 30.21 in 10.0 mi Calm Calm - N/A   Overcast
8:53 PM 32.0 °F - 21.0 °F 64% 30.19 in 10.0 mi Calm Calm - N/A   Overcast
9:53 PM 28.9 °F - 19.0 °F 67% 30.19 in 10.0 mi Calm Calm - N/A   Scattered Clouds
10:53 PM 28.9 °F - 19.9 °F 69% 30.18 in 10.0 mi Calm Calm - N/A   Overcast
11:53 PM 28.0 °F - 21.0 °F 75% 30.16 in 10.0 mi Calm Calm - N/A   Mostly Cloudy